Regional Weather Roundup
Issued by NWS

Home | Current Version | Previous Version | Graphics & Text | Print | Product List | Glossary On
Versions: 1 2 3 4 5 6 7 8 9 10 11 12 13 14 15 16 17 18 19 20 21 22 23 24 25 26 27 28 29 30 31 32 33 34 35 36 37 38 39 40 41 42 43 44 45 46 47 48 49 50
000
ASUS44 KMEG 010900
RWRTN
TENNESSEE HOURLY STATE WEATHER ROUNDUP
NATIONAL WEATHER SERVICE MEMPHIS TN
400 AM CDT FRI AUG 01 2014

TNZ002-004-019-021-049-052-054-088>092-011000-
WEST TENNESSEE

CITY           SKY/WX    TMP DP  RH WIND       PRES   REMARKS
MEMPHIS INTL   CLOUDY    72  66  81 N6        30.05S
NWS MEMPHIS      N/A     71 N/A N/A MISG        N/A
JACKSON        MOCLDY    68  65  90 CALM      30.05F
DYERSBURG      PTCLDY    70  59  68 CALM      30.07S
UNION CITY     CLOUDY    66  64  94 CALM      30.05F
PARIS          MOCLDY    61  59  94 N5        30.07S
LEXINGTON      PTCLDY    64  63  94 CALM      30.05S
SAVANNAH       CLEAR     63  63 100 CALM      30.05F
$$

TNZ008-025-027-028-033-062-065-066-011000-
NORTH MIDDLE TENNESSEE

CITY           SKY/WX    TMP DP  RH WIND       PRES   REMARKS
NASHVILLE      CLEAR     64  62  93 CALM      30.06S
CLARKSVILLE    CLEAR     62  60  93 CALM      30.06R
COOKEVILLE     CLEAR     61  61 100 CALM      30.07S
CROSSVILLE     PTCLDY    62  58  86 CALM      30.11F FOG
$$

TNZ061-075-076-078-094-096-097-011000-
SOUTH MIDDLE TENNESSEE

CITY           SKY/WX    TMP DP  RH WIND       PRES   REMARKS
FAYETTEVILLE   CLEAR     63  61  94 MISG      30.07S
TULLAHOMA      CLEAR     61  57  88 CALM      30.08F
WINCHESTER     CLEAR     63  61  94 CALM      30.08S
MCMINNVILLE    CLEAR     61  61 100 CALM      30.07F
COLUMBIA       CLEAR     63  63 100 CALM      30.05S
SHELBYVILLE    CLEAR     61  61 100 CALM      30.08S
$$

TNZ017-018-042-046-047-011000-
NORTHEAST TENNESSEE

CITY           SKY/WX    TMP DP  RH WIND       PRES   REMARKS
TRI CITIES     CLOUDY    65  60  84 N3        30.11S
ELIZABETHTON   LGT RAIN  64  57  77 E7        30.12S
$$

TNZ012-013-036-069-073-074-011000-
CENTRAL EAST TENNESSEE

CITY           SKY/WX    TMP DP  RH WIND       PRES   REMARKS
KNOXVILLE      MOCLDY    67  64  90 CALM      30.07
OAK RIDGE      PTCLDY    66  64  93 CALM      30.09S
GATLINBURG     SUNNY     64  63  94 CALM      30.08R
$$

TNZ083-085-099-011000-
SOUTHEAST TENNESSEE

CITY           SKY/WX    TMP DP  RH WIND       PRES   REMARKS
CHATTANOOGA    PTCLDY    67  64  90 CALM      30.06F
$$

SKY/WX REPORTED AS FAIR MEANS FEW OR NO CLOUDS BELOW
12 THOUSAND FEET.




USA.gov is the U.S. government's official web portal to all federal, state and local government web resources and services.